Simultaneous Nadir Overpasses (SNOs) Predictions

Prediction of SNOs between AQUA and NOAA-19 Satellite Orbit:

Table of predicted SNOs for the next 14.0 days since TLE Epoch: 11/23/2013
Index Date (AQUA) Time (AQUA) Lat,Lon (AQUA) SZA (AQUA ) Date (NOAA-19) Time (NOAA-19) Lat,Lon (NOAA-19) SZA (NOAA-19 ) Distance(km) Time Diff (sec)
1 11/24/2013 06:13:59 -69.18, -91.79 90.28 11/24/2013 06:13:26 -69.18, -91.79 90.28 0.05 33
2 11/24/2013 07:02:24 65.64, 79.80 86.36 11/24/2013 07:03:18 65.64, 79.82 86.37 0.62 54
3 11/26/2013 10:58:17 -69.29,-163.00 89.75 11/26/2013 10:57:37 -69.29,-162.96 89.76 1.68 40
4 11/26/2013 11:46:56 66.55, 7.83 87.64 11/26/2013 11:47:44 66.56, 7.79 87.66 1.96 48
5 11/28/2013 15:42:40 -69.73, 125.35 88.94 11/28/2013 15:41:54 -69.72, 125.37 88.94 0.71 46
6 11/28/2013 16:31:19 67.00, -63.71 88.45 11/28/2013 16:32:01 67.01, -63.75 88.46 1.83 42
7 11/30/2013 20:26:56 -69.82, 54.17 88.49 11/30/2013 20:26:04 -69.81, 54.22 88.50 2.37 52
8 11/30/2013 21:15:32 66.93,-134.69 88.73 11/30/2013 21:16:08 66.93,-134.67 88.74 1.05 36
9 12/03/2013 01:11:17 -70.23, -17.47 87.77 12/03/2013 01:10:20 -70.23, -17.44 87.77 1.34 57
10 12/03/2013 01:59:49 67.13, 154.04 89.25 12/03/2013 02:00:20 67.13, 154.08 89.25 1.75 31
11 12/05/2013 05:55:42 -70.90, -89.53 86.81 12/05/2013 05:54:41 -70.91, -89.59 86.80 2.43 61




NCC Satellite Simultaneous Nadir Overpasses (SNOs) Prediction Service
